Location: Skalnate Pleso
(49.1889°N, 20.2450°E)
Time: 19:31:48
(UTC+01:00)

STARLINK-48 - Pass Details

Date: 19 November 2019
Orbit: 506 x 508 km, 53.0° (Epoch: 12 December)

Event Time Altitude Azimuth Distance (km) Brightness Sun altitude
Exits shadow 03:19:32 12° 83° (E) 1,575 6.7 -34.8°
Drops below altitude 10° 03:19:57 10° 80° (E) 1,719 6.9 -34.7°
Enters shadow 04:19:56 -63° 244° (WSW) 11,905 10.4 -25.0°
Maximum altitude 04:54:56 78° 339° (NNW) 522 3.3 -19.3°
